Flag for U.S.A. Weather past 2 weeks in Olympia, Washington, U.S.A.

Now
65 °F

Clear.


Feels Like: 65 °F
Forecast: 53 / 94 °F
Wind: No wind

Location: Olympia Airport

Current Time: Jul 29, 2015 at 11:27:58 PM

Latest Report: Jul 29, 2015 at 10:54 PM


Visibility: 10 mi

Pressure: 30.08 "Hg

Humidity: 49%

Dew point: 45 °F

Location of OlympiaLocation

Historic Weather in Olympia — Graph

°F

Olympia temperature yesterday

Maximum temperature yesterday: 82 °F (at 5:54 PM)
Minimum temperature yesterday: 49 °F (at 5:54 AM)
Average temperature yesterday: 66 °F

Past Weeks' High & Low Weather Summary

 TemperatureHumidityPressure
High94 °F (Jul 19, 1:54 PM)97% (Jul 27, 2:54 AM)30.29 "Hg (Jul 27, 2:54 AM)
Low47 °F (Jul 27, 6:02 AM)16% (Jul 18, 4:54 PM)29.87 "Hg (Jul 22, 7:54 PM)
Average66 °F61%30.06 "Hg
* Reported Jul 15 7:54 AM — Jul 29 9:54 PM, Olympia, Weather by CustomWeather, © 2015

Note: Actual official high and low records may vary slightly from our data, if they occured in-between our weather recording intervals... More about our weather records

Advertising

Olympia weather history for previous 24 hours

 ConditionsComfort  
Time TempWeatherWind HumidityBarometerVisibility
9:54 PM
Wed, Jul 29
71 °FClear.No wind39%30.07 "Hg10 mi
8:54 PM81 °FSunny.6 mph23%30.06 "Hg10 mi
7:54 PM86 °FSunny.7 mph17%30.06 "Hg10 mi
6:54 PM89 °FSunny.9 mph19%30.06 "Hg10 mi
5:54 PM91 °FSunny.8 mph17%30.07 "Hg10 mi
4:54 PM90 °FSunny.8 mph18%30.09 "Hg10 mi
3:54 PM89 °FSunny.8 mph20%30.10 "Hg10 mi
2:54 PM88 °FSunny.9 mph24%30.11 "Hg10 mi
1:54 PM86 °FSunny.8 mph29%30.14 "Hg10 mi
12:54 PM83 °FSunny.10 mph32%30.15 "Hg10 mi
11:54 AM79 °FSunny.8 mph38%30.16 "Hg10 mi
10:54 AM76 °FSunny.7 mph47%30.18 "Hg10 mi
9:54 AM72 °FSunny.8 mph53%30.18 "Hg10 mi
8:54 AM68 °FSunny.7 mph61%30.19 "Hg10 mi
7:54 AM64 °FSunny.5 mph73%30.19 "Hg10 mi
6:54 AM55 °FSunny.No wind83%30.19 "Hg10 mi
5:54 AM51 °FClear.No wind89%30.18 "Hg10 mi
4:54 AM50 °FClear.No wind89%30.18 "Hg10 mi
3:54 AM52 °FClear.No wind89%30.18 "Hg10 mi
2:54 AM55 °FClear.No wind83%30.18 "Hg10 mi
1:54 AM56 °FClear.No wind84%30.19 "Hg10 mi
12:54 AM57 °FClear.No wind78%30.19 "Hg10 mi
11:54 PM
Tue, Jul 28
61 °FClear.No wind70%30.19 "Hg10 mi
Weather by CustomWeather, © 2015

See weather overviewHow to use our weather pages